Location: Frydek-Mistek
(49.6830°N, 18.3330°E)
Time: 15:37:05
(UTC+01:00)

Courier 1B Rocket - All Passes

Search period start: 31 January 2015 00:00
Search period end: 10 February 2015 00:00
Orbit: 921 x 1202 km, 28.2° (Epoch: 29 January)

Date Brightness Start Highest point End Pass type
(mag) Time Alt. Az. Time Alt. Az. Time Alt. Az.
31 Jan - 12:15:49 10° SSW 12:17:57 11° S 12:20:07 10° SSE daylight
01 Feb - 11:16:00 10° S 11:17:23 11° S 11:18:50 10° SSE daylight
02 Feb - 12:07:35 10° SSW 12:08:51 11° S 12:10:06 10° S daylight
03 Feb - 11:07:08 10° S 11:08:17 10° S 11:09:28 10° S daylight
